Temp
17 18 19 20 20 20 19 19 19 20 19 17 19 19 19 18 16 16 15 15 14 13 12 12 11 10 10 9 11 13 14 13 11 12 11 13 11 12 12 12 12 13 13 12
17 18 20 19 18 18 18 19 19 19 18 17 19 18 20 17 16 15 14 14 13 12 11 10 10 10 10 10 10 11 11 11 12 12 11 13 11 12 12 12 12 12 12 12
19 20 17 17 17 17 18 18 19 18 18 18 17 19 17 16 14 13 14 13 12 10 9 9 10 10 10 10 11 12 12 12 12 12 12 12 12 11 11 11 11 12 12 12
18 20 17 17 18 18 18 18 18 17 17 19 17 20 18 17 16 15 14 13 12 9 9 9 9 10 11 11 11 12 12 14 13 12 11 12 11 11 11 12 11 11 11 12
19 17 16 17 18 18 19 16 17 17 17 17 18 17 20 16 17 16 14 13 11 9 9 9 9 10 11 13 13 12 14 15 13 13 12 12 11 11 11 11 10 11 11 11
19 16 17 19 16 18 16 16 16 16 17 17 19 17 21 18 17 15 14 13 10 9 9 9 10 10 11 13 14 14 14 14 14 13 12 12 12 11 11 10 10 11 11 11
18 17 17 16 16 16 16 17 17 17 16 19 15 15 19 18 15 14 13 12 10 8 8 9 9 10 10 11 13 13 13 14 14 13 13 12 12 11 11 11 11 11 12 11
18 17 17 17 19 18 17 18 16 16 17 17 13 15 18 16 14 12 11 11 10 9 9 8 9 9 9 10 11 11 11 11 11 12 11 11 11 11 11 10 11 11 11 11
18 18 16 16 17 19 16 16 17 15 13 15 17 17 14 13 14 12 12 11 10 9 9 9 8 9 9 10 11 11 11 11 10 10 11 11 11 11 11 11 11 11 11 10
19 18 16 14 16 14 17 17 16 16 14 17 19 18 21 14 15 14 13 12 11 9 9 9 9 9 9 9 9 9 9 10 10 10 10 10 10 10 10 10 10 11 10 10
19 18 15 15 16 17 15 16 16 17 17 19 20 21 19 18 17 15 14 12 11 10 8 9 9 9 9 9 9 9 9 9 9 9 10 10 9 10 10 10 10 9 10 10
18 19 17 16 15 16 19 18 18 18 17 17 17 20 17 18 17 15 13 11 11 10 8 9 9 9 9 8 8 8 9 9 9 9 10 10 9 9 9 9 9 9 9 9
16 18 17 15 15 14 15 16 18 18 17 18 19 21 16 16 15 14 13 11 11 9 9 9 9 9 9 9 8 8 8 9 9 9 9 9 9 9 9 9 8 7 8 8
16 18 19 20 20 19 15 16 16 17 18 19 19 20 15 15 14 13 12 11 11 10 8 8 9 9 8 8 8 8 8 8 8 8 9 9 9 8 8 9 8 8 8 7
16 17 18 18 17 16 17 16 15 16 19 19 21 19 20 17 16 14 12 11 11 10 8 8 8 8 8 8 8 8 8 8 8 8 8 8 8 8 8 8 7 7 7 7
14 17 16 17 15 16 16 16 16 17 18 18 18 17 20 20 16 14 12 11 10 10 9 8 8 7 7 7 8 8 8 7 8 8 8 8 7 7 6 6 6 6 6 6
14 15 15 17 15 15 15 16 16 16 17 18 17 19 18 16 16 15 13 11 11 11 10 9 9 9 9 8 8 8 8 8 8 8 8 7 6 6 6 6 6 5 6 6
13 14 15 17 14 15 19 17 18 17 18 17 18 18 17 18 16 15 14 12 11 11 10 10 9 10 10 9 9 8 8 8 8 8 8 7 7 7 7 6 6 6 6 5
11 14 15 15 15 18 16 14 15 16 18 18 17 18 17 15 15 14 14 13 13 11 11 10 9 9 9 9 8 9 9 8 8 8 8 8 7 7 7 7 6 6 5 5
10 12 15 13 15 15 20 18 16 17 19 21 18 18 17 14 17 20 14 13 12 11 11 10 9 8 8 7 7 8 9 9 8 9 8 8 8 7 7 6 6 5 4 4
9 11 13 15 16 17 17 15 16 18 21 19 18 18 16 16 20 19 15 13 12 11 10 10 9 8 8 8 8 8 9 9 8 8 8 7 7 6 6 6 5 5 4 4
12 12 13 15 15 15 13 13 18 22 16 15 15 16 14 16 16 17 13 12 12 11 10 10 8 8 8 9 9 8 9 8 8 8 7 7 6 6 6 5 5 4 4 4
11 15 15 16 16 15 13 17 16 16 17 15 14 13 14 14 15 17 13 11 13 13 12 11 11 8 9 10 9 9 9 8 8 8 7 7 6 6 5 5 4 4 4 4
12 12 14 14 16 14 12 14 16 16 16 17 17 15 13 14 16 16 14 13 11 12 13 12 10 10 10 10 9 9 9 9 8 8 7 7 6 6 5 5 4 4 4 4
15 13 15 15 15 13 13 14 17 17 17 17 17 16 16 16 17 17 16 15 14 14 12 12 12 11 11 11 10 9 9 9 8 8 7 7 6 6 6 5 5 4 4 4
15 14 15 16 18 17 19 17 18 17 18 18 18 17 16 17 17 17 17 17 16 15 14 13 12 11 11 11 10 9 9 9 8 7 7 7 7 6 5 5 5 4 3 3
Height
1517 1515 1510 1506 1508 1507 1510 1510 1509 1504 1507 1510 1500 1498 1496 1498 1500 1501 1502 1502 1500 1497 1494 1490 1486 1482 1480 1478 1479 1481 1484 1488 1492 1494 1497 1497 1498 1498 1499 1501 1503 1511 1516 1524
1514 1509 1503 1508 1511 1512 1510 1508 1505 1503 1506 1508 1497 1495 1490 1496 1497 1501 1501 1499 1498 1494 1490 1485 1481 1478 1476 1475 1475 1477 1479 1483 1488 1492 1495 1495 1495 1496 1498 1500 1505 1509 1515 1520
1502 1500 1504 1507 1509 1511 1507 1506 1502 1506 1504 1503 1502 1488 1491 1496 1498 1500 1499 1499 1497 1494 1489 1483 1479 1477 1474 1473 1472 1473 1475 1481 1485 1489 1492 1493 1492 1494 1497 1499 1501 1507 1514 1518
1501 1497 1504 1505 1503 1505 1504 1501 1505 1507 1508 1500 1501 1488 1485 1488 1492 1497 1496 1497 1496 1493 1488 1484 1478 1475 1473 1471 1472 1473 1476 1479 1484 1487 1490 1492 1492 1490 1493 1497 1500 1508 1514 1517
1493 1497 1500 1501 1497 1501 1499 1505 1505 1505 1504 1504 1495 1499 1472 1487 1487 1490 1494 1495 1495 1493 1490 1486 1482 1477 1474 1473 1474 1476 1477 1480 1483 1485 1489 1491 1490 1492 1491 1494 1502 1508 1514 1517
1489 1496 1495 1493 1499 1499 1504 1506 1508 1507 1504 1500 1485 1493 1469 1478 1481 1489 1492 1493 1494 1493 1491 1489 1485 1481 1478 1477 1477 1477 1479 1481 1484 1486 1489 1490 1491 1492 1494 1498 1504 1507 1513 1516
1487 1488 1492 1494 1498 1503 1501 1503 1505 1504 1507 1486 1498 1498 1473 1477 1485 1488 1491 1492 1494 1492 1491 1491 1488 1485 1483 1480 1480 1481 1482 1484 1485 1487 1488 1491 1492 1493 1493 1499 1503 1510 1515 1517
1481 1485 1485 1485 1483 1488 1494 1494 1501 1506 1496 1491 1505 1494 1472 1479 1485 1489 1491 1492 1493 1491 1492 1491 1490 1489 1487 1485 1483 1484 1484 1485 1485 1487 1489 1489 1491 1493 1496 1501 1504 1509 1513 1517
1474 1473 1480 1484 1484 1484 1495 1497 1493 1502 1508 1499 1482 1476 1481 1483 1484 1487 1488 1491 1491 1491 1491 1492 1492 1491 1490 1488 1487 1488 1487 1487 1488 1489 1489 1491 1492 1495 1497 1500 1504 1509 1512 1516
1462 1473 1478 1486 1486 1488 1483 1485 1496 1494 1505 1485 1468 1469 1453 1477 1476 1481 1485 1487 1490 1491 1491 1491 1492 1493 1493 1492 1490 1489 1490 1490 1491 1491 1492 1495 1495 1497 1498 1503 1506 1509 1512 1516
1457 1463 1481 1482 1478 1471 1485 1482 1484 1481 1481 1468 1462 1451 1452 1459 1467 1474 1479 1484 1487 1489 1490 1490 1492 1493 1493 1493 1493 1493 1493 1493 1493 1494 1495 1496 1498 1501 1500 1506 1508 1510 1514 1516
1450 1452 1464 1470 1473 1472 1465 1465 1468 1470 1477 1473 1471 1454 1458 1460 1466 1471 1477 1482 1486 1488 1488 1489 1491 1492 1494 1494 1495 1495 1496 1496 1497 1499 1499 1499 1501 1503 1505 1507 1510 1513 1516 1516
1450 1449 1460 1471 1473 1474 1468 1464 1464 1465 1469 1466 1462 1446 1460 1464 1467 1471 1475 1480 1484 1487 1488 1489 1490 1492 1494 1495 1496 1498 1499 1499 1500 1501 1502 1504 1507 1508 1511 1512 1513 1515 1518 1517
1440 1438 1431 1434 1431 1439 1457 1453 1459 1460 1460 1451 1450 1445 1460 1462 1465 1468 1473 1476 1481 1485 1488 1488 1490 1492 1494 1496 1497 1498 1500 1502 1503 1504 1505 1506 1508 1511 1514 1515 1516 1518 1519 1522
1438 1434 1432 1431 1437 1440 1441 1445 1453 1453 1445 1450 1434 1443 1440 1450 1455 1461 1467 1473 1477 1482 1486 1488 1489 1492 1494 1496 1498 1499 1501 1503 1505 1506 1508 1508 1510 1513 1518 1518 1518 1520 1521 1524
1437 1428 1432 1433 1438 1439 1441 1442 1444 1445 1443 1442 1442 1442 1437 1440 1451 1459 1463 1468 1473 1477 1482 1486 1488 1491 1494 1496 1497 1499 1501 1504 1506 1507 1509 1511 1515 1519 1521 1519 1520 1522 1524 1526
1436 1431 1432 1428 1435 1443 1441 1431 1436 1437 1434 1433 1442 1429 1434 1442 1444 1449 1456 1462 1466 1470 1476 1481 1484 1488 1492 1494 1497 1499 1502 1505 1507 1510 1513 1515 1518 1520 1521 1520 1521 1524 1525 1526
1434 1430 1430 1421 1439 1440 1403 1410 1415 1422 1420 1426 1423 1425 1429 1431 1436 1442 1447 1451 1459 1465 1469 1477 1481 1486 1490 1493 1496 1499 1502 1505 1508 1511 1513 1516 1518 1519 1519 1521 1523 1525 1526 1529
1434 1426 1423 1426 1428 1405 1412 1415 1416 1420 1410 1412 1414 1420 1426 1431 1436 1439 1442 1447 1451 1457 1464 1470 1477 1483 1488 1492 1495 1498 1501 1504 1507 1509 1512 1514 1517 1518 1520 1523 1524 1526 1528 1531
1426 1424 1416 1423 1418 1413 1392 1396 1403 1410 1408 1392 1399 1408 1418 1426 1427 1421 1433 1441 1449 1456 1461 1466 1473 1478 1484 1489 1493 1497 1499 1503 1506 1509 1512 1514 1516 1518 1520 1523 1525 1527 1529 1532
1419 1418 1412 1406 1405 1393 1389 1395 1401 1409 1395 1385 1388 1396 1408 1412 1411 1418 1424 1435 1443 1449 1456 1462 1468 1473 1479 1484 1489 1494 1498 1501 1505 1509 1511 1513 1516 1518 1520 1522 1524 1527 1529 1530
1397 1402 1402 1399 1403 1402 1389 1399 1392 1381 1381 1383 1387 1392 1397 1407 1411 1415 1421 1428 1436 1442 1450 1456 1463 1469 1475 1480 1485 1490 1495 1500 1503 1507 1510 1513 1515 1517 1519 1521 1523 1526 1527 1528
1392 1377 1381 1383 1380 1378 1380 1378 1380 1381 1381 1382 1385 1389 1396 1403 1408 1413 1418 1425 1432 1438 1445 1453 1459 1466 1471 1476 1482 1486 1491 1495 1499 1504 1508 1511 1515 1518 1521 1523 1524 1525 1527 1528
1381 1382 1377 1382 1375 1375 1377 1377 1378 1380 1381 1382 1383 1387 1393 1399 1404 1410 1416 1422 1429 1436 1442 1450 1457 1462 1466 1472 1478 1484 1488 1493 1497 1501 1505 1508 1511 1514 1517 1519 1521 1523 1524 1525
1361 1376 1370 1371 1370 1373 1373 1373 1374 1377 1380 1381 1383 1386 1391 1397 1402 1406 1413 1419 1426 1433 1440 1446 1451 1456 1462 1469 1475 1481 1484 1489 1494 1498 1501 1505 1508 1511 1512 1515 1517 1519 1522 1523
1354 1359 1362 1359 1362 1364 1364 1367 1371 1374 1377 1381 1382 1385 1391 1396 1399 1405 1411 1417 1422 1429 1436 1442 1448 1455 1459 1465 1471 1476 1480 1485 1490 1493 1495 1499 1502 1505 1509 1512 1514 1517 1519 1520
Wind_Speed
6 8 11 13 11 8 7 8 10 8 5 7 12 12 10 9 11 10 10 13 18 20 23 21 20 20 16 17 18 23 22 19 23 24 15 13 9 15 25 31 33 38 36 30
5 14 13 5 5 9 9 10 12 9 4 6 10 14 11 7 8 4 8 14 16 22 22 18 14 11 10 11 12 15 19 19 27 24 15 12 10 16 19 30 33 35 35 33
15 2 3 10 9 11 12 13 10 10 3 11 10 14 6 4 5 3 6 9 14 15 17 18 11 7 4 4 7 9 12 22 27 21 17 14 11 19 24 26 34 34 35 32
11 14 11 9 12 13 12 7 9 7 5 6 2 4 8 7 7 3 6 7 9 14 17 15 10 8 5 9 10 11 11 14 22 17 16 12 9 22 26 31 37 34 29 29
5 9 9 12 15 13 4 4 4 5 9 8 8 5 5 5 8 4 3 5 8 12 15 15 12 13 13 12 12 10 7 11 11 11 14 14 11 5 24 24 26 23 26 28
11 2 5 4 4 9 11 5 2 3 4 6 4 5 4 6 3 2 1 3 6 9 11 12 10 13 15 12 10 9 7 9 9 8 8 11 14 18 20 22 23 19 20 21
13 14 5 8 8 6 9 6 3 4 5 2 3 5 7 5 5 3 2 4 4 7 8 9 10 12 13 13 11 9 7 8 8 5 9 8 10 14 18 20 24 25 19 17
13 7 17 14 13 8 14 10 4 4 3 1 2 6 1 4 7 6 4 3 4 5 6 7 8 9 11 12 12 11 11 11 10 10 10 9 9 10 21 19 19 21 17 17
8 7 6 7 6 10 7 9 1 1 1 4 5 5 5 6 8 8 8 6 6 4 4 5 6 6 7 7 8 8 11 11 10 9 9 8 9 13 16 15 15 15 12 16
7 4 6 5 6 4 6 12 4 4 4 5 6 5 4 12 13 11 11 11 8 7 6 5 4 6 5 6 5 5 6 9 12 13 12 11 11 10 12 13 17 14 14 12
11 6 6 8 12 15 7 6 4 3 4 3 3 2 0 13 13 14 13 13 11 8 7 7 6 5 5 4 3 5 5 9 11 13 16 17 15 12 12 12 13 12 11 11
20 10 8 13 2 6 14 14 16 6 6 3 4 2 5 10 12 14 15 14 12 8 8 9 8 6 5 5 6 7 8 9 12 13 14 14 18 17 18 17 17 16 15 15
13 10 9 5 5 5 10 15 15 7 2 9 4 3 7 10 12 15 17 16 14 10 10 10 11 10 9 9 10 11 12 12 12 13 15 15 13 12 12 13 14 14 12 11
23 8 19 12 4 10 11 20 20 17 9 7 11 4 12 14 14 17 19 19 17 14 12 14 14 14 12 12 12 14 14 14 13 13 13 13 13 12 13 14 15 15 13 12
14 14 16 8 5 10 8 18 22 21 20 11 3 15 12 19 19 24 23 21 20 17 16 17 18 16 12 13 15 15 16 16 16 17 16 16 15 14 14 14 14 14 13 12
5 8 13 15 8 9 5 11 20 23 22 20 15 14 6 14 21 22 25 25 25 23 20 18 18 17 14 14 15 15 15 15 13 13 15 17 18 18 17 17 17 16 16 14
11 8 9 16 12 6 11 19 19 14 16 22 16 15 8 11 18 28 29 30 30 29 26 22 21 19 18 16 13 15 18 18 18 17 18 18 18 17 16 15 15 15 15 13
14 15 5 6 11 10 6 5 21 24 18 23 16 12 15 16 25 27 31 35 32 31 31 28 25 24 21 19 17 16 19 20 21 20 19 18 16 15 15 15 14 13 12 12
19 14 10 7 12 5 5 6 10 15 16 23 25 18 16 9 14 15 29 32 34 34 32 31 29 30 26 24 22 21 22 21 19 18 17 16 15 14 14 14 13 12 12 11
14 14 14 6 10 12 10 11 13 8 11 12 26 22 18 18 11 10 31 32 30 30 30 30 29 29 30 28 26 26 26 25 22 21 19 18 16 15 14 14 13 14 13 12
8 10 17 16 10 6 3 11 19 11 5 6 26 26 29 18 14 11 27 31 31 32 32 30 31 31 30 31 30 29 28 27 23 21 20 18 16 15 15 15 15 14 13 12
14 13 11 16 15 13 11 11 12 8 2 5 16 25 32 22 19 9 26 32 34 35 35 35 33 32 31 32 32 31 29 26 25 23 21 19 18 17 16 15 15 14 12 10
9 10 12 12 13 2 33 8 16 3 3 7 15 21 26 25 22 18 24 30 35 37 37 37 35 32 33 33 33 32 31 30 28 26 23 21 19 16 15 15 15 14 13 12
17 6 6 7 12 8 23 13 17 5 3 5 11 20 27 28 24 21 25 30 31 35 37 38 36 36 36 35 34 31 32 31 30 28 26 24 22 20 18 17 16 15 15 14
14 15 13 9 5 5 11 28 24 15 9 6 11 20 26 29 27 25 29 31 32 35 36 38 39 38 37 35 34 34 33 33 32 29 28 26 24 22 21 19 17 16 14 13
13 14 15 11 12 14 14 28 21 25 21 12 14 20 26 32 33 27 27 30 33 34 35 37 37 36 35 34 34 35 34 34 33 32 31 30 28 26 24 22 19 18 17 15
Wind_Direction
191 224 225 231 231 287 271 264 269 272 273 280 266 271 269 278 236 247 274 307 318 318 314 310 299 286 275 263 252 238 235 226 207 211 200 228 221 206 203 191 184 185 179 195
197 238 247 255 229 224 236 256 267 279 253 248 286 278 290 256 230 236 315 329 334 327 330 330 321 305 277 260 244 233 227 210 204 206 200 230 219 196 195 188 181 179 181 190
232 227 96 197 209 221 233 247 268 278 294 249 283 263 218 188 198 228 332 340 342 347 340 343 346 342 319 261 235 214 213 190 201 205 206 228 246 208 200 193 180 183 184 188
243 247 221 223 231 219 247 232 253 258 266 290 271 301 204 190 203 235 344 360 6 357 0 3 26 46 75 81 106 132 164 178 200 209 210 241 228 200 198 199 183 181 188 193
199 189 192 223 227 197 254 155 214 256 265 293 213 247 125 184 230 236 349 21 19 10 7 17 25 50 69 79 99 125 156 183 192 216 218 230 216 186 169 166 170 187 199 202
254 176 204 223 130 193 137 151 194 235 259 250 181 247 191 190 203 153 158 73 30 23 19 22 38 54 64 79 90 106 130 162 194 205 208 238 233 218 183 172 171 187 203 200
211 219 182 166 145 148 183 194 240 223 205 289 127 233 280 168 157 151 145 113 61 35 35 38 37 58 65 79 91 99 119 141 157 192 174 208 229 220 189 182 186 191 193 188
210 210 197 184 209 197 194 214 221 257 224 163 187 235 191 162 160 175 175 148 103 70 69 65 71 58 68 68 72 94 110 124 135 155 172 184 210 187 188 181 186 188 215 225
211 217 150 195 165 183 167 210 342 265 198 262 201 224 194 183 191 198 189 189 157 118 92 81 83 91 91 100 96 86 95 102 121 138 154 143 144 152 158 172 190 177 186 199
181 202 184 136 157 89 231 140 173 202 231 242 194 244 217 193 202 196 192 191 177 161 147 128 116 115 114 124 125 115 98 117 112 125 140 150 158 171 155 159 163 176 182 193
183 231 144 158 214 185 161 196 211 275 249 286 282 163 155 179 188 189 187 183 182 175 159 145 145 140 142 145 145 129 131 119 116 121 129 127 125 136 143 156 161 165 170 164
201 213 200 199 99 278 225 218 206 226 197 236 305 249 166 152 168 178 177 178 180 185 174 166 164 159 156 152 137 130 129 125 129 134 129 123 128 139 143 146 153 154 159 158
171 206 183 185 193 191 217 205 214 226 237 216 235 131 163 159 166 176 175 178 180 178 180 171 163 158 148 138 135 135 129 130 126 132 135 132 141 149 156 154 154 151 151 143
180 191 213 215 202 156 200 201 200 204 220 214 230 155 180 187 182 177 181 179 180 179 177 172 165 157 152 142 139 140 136 132 134 137 143 147 146 141 133 131 132 133 131 139
194 223 211 219 163 182 207 194 195 208 217 215 243 218 186 191 191 188 181 178 179 183 182 175 170 165 167 156 147 140 136 135 135 134 137 136 135 141 145 142 141 138 137 136
224 222 199 214 185 197 207 199 200 216 223 235 250 262 235 195 186 181 184 181 183 186 189 184 180 173 164 160 161 159 155 151 152 152 146 145 147 150 149 141 137 136 137 136
247 208 180 218 193 177 252 211 197 205 220 223 225 235 176 177 182 186 185 187 188 185 188 188 189 183 174 170 167 161 159 155 152 152 149 148 149 148 143 138 137 138 138 139
253 222 226 177 146 216 231 150 200 206 215 213 236 223 192 192 195 193 192 186 189 188 185 189 188 189 185 181 176 174 162 156 152 152 151 151 153 152 143 139 142 141 140 144
230 226 213 194 214 271 166 168 171 187 241 221 225 216 205 171 156 196 196 194 190 189 187 185 187 190 189 189 190 180 173 168 164 163 162 160 158 156 155 158 158 155 156 160
216 245 224 180 215 223 207 177 162 167 260 212 208 208 189 164 202 198 189 192 190 189 185 182 183 186 192 191 191 186 183 180 178 178 175 171 167 167 166 165 165 164 164 168
191 209 211 213 229 224 178 150 153 190 224 190 196 194 181 191 203 176 184 184 186 184 183 181 182 185 187 193 189 190 189 187 184 183 179 176 173 172 174 173 172 174 173 172
184 181 205 221 218 241 141 138 191 205 159 165 179 183 187 184 176 164 172 176 180 182 182 185 184 187 186 192 192 193 194 189 189 188 186 184 184 183 181 180 179 179 180 179
219 196 201 204 207 78 171 184 203 200 209 191 181 188 184 175 177 173 171 174 181 184 185 188 189 186 192 195 196 196 194 195 193 193 193 192 192 190 190 191 192 191 191 193
225 227 224 176 209 208 202 210 196 191 213 213 201 188 182 179 174 178 174 174 177 182 186 187 188 193 196 198 198 200 198 197 198 197 197 197 197 196 196 197 200 205 205 204
199 192 214 231 238 223 227 219 219 222 229 216 192 188 182 177 173 170 172 176 180 184 187 190 194 198 199 200 200 200 203 201 201 202 202 203 204 204 204 205 208 208 211 214
201 205 202 219 212 204 217 219 215 213 219 215 199 188 185 180 174 169 173 181 185 188 192 195 199 201 202 203 203 204 206 205 206 204 206 208 207 206 208 209 210 211 211 213